Wind_Speed
78 79 81 83 88 88 87 84 83 78 73 73 76 82 79 81 76 69 70 76 72 71 74 75 79 76 69 67 67 67 66 67 69 67 63 64 62 65 65 64 64 66 70 66 67
78 81 83 83 83 87 89 90 87 88 82 74 78 79 83 72 71 70 75 77 77 72 72 76 75 70 67 70 72 70 68 68 70 68 67 70 68 68 67 67 69 71 74 65 64
76 80 81 83 85 86 86 87 88 93 92 86 81 82 79 72 70 74 78 73 76 73 69 69 72 72 71 73 73 72 64 65 68 71 72 71 68 71 72 70 70 72 71 66 73
65 75 79 82 84 88 90 89 91 92 95 85 88 84 84 80 73 80 80 79 76 74 70 72 74 74 74 73 75 69 63 66 65 70 72 71 70 72 69 66 70 73 61 67 70
61 64 69 77 86 88 89 90 92 96 95 93 91 90 89 79 71 89 88 86 82 77 77 75 75 78 75 77 75 73 74 72 72 73 71 69 70 67 64 68 67 64 60 65 64
60 63 66 70 73 80 86 92 96 97 95 95 90 87 84 74 80 84 87 85 86 80 77 75 77 80 69 76 75 75 73 70 68 63 65 62 62 65 66 66 67 61 61 63 68
43 51 59 70 71 73 76 80 91 94 94 96 96 90 84 77 87 87 87 82 85 82 80 77 79 83 79 76 70 66 63 62 63 64 65 63 64 61 62 63 60 58 61 67 74
48 49 50 54 59 68 74 78 81 86 88 92 94 92 86 90 90 88 89 84 79 78 79 81 82 76 74 71 67 64 61 60 65 58 59 59 63 59 59 56 53 57 63 70 65
60 60 59 59 60 60 61 67 78 83 85 90 89 87 83 86 90 97 93 86 85 80 78 80 76 72 70 66 64 66 61 63 58 58 60 58 59 53 52 51 55 60 66 61 68
72 75 75 72 68 68 67 67 67 73 81 79 80 83 75 83 94 91 91 90 89 86 80 76 73 70 67 65 65 67 64 55 61 59 60 61 51 47 50 52 56 62 59 64 70
75 83 87 87 84 80 78 76 75 73 65 68 75 69 69 69 77 86 90 88 92 88 80 77 69 59 64 69 69 64 58 57 61 61 60 47 39 44 48 51 55 57 64 70 63
78 80 92 96 96 89 89 86 83 79 71 62 61 62 69 69 71 74 80 82 84 81 86 82 67 68 69 69 64 59 57 59 62 60 51 39 43 46 52 55 58 61 60 61 70
89 90 92 97 104 102 98 94 91 85 77 69 65 57 67 72 67 69 69 71 71 77 76 72 71 72 70 66 63 59 57 58 53 46 37 39 46 51 54 57 58 54 57 59 47
104 104 102 104 103 110 111 105 96 87 83 68 71 65 66 74 64 70 67 67 60 50 63 64 69 69 70 65 61 59 51 48 37 39 47 47 52 52 52 52 52 53 40 40 45
85 88 94 103 112 112 112 115 108 97 86 80 82 78 77 72 61 70 76 73 63 55 60 50 53 50 62 46 54 43 52 44 41 49 51 52 52 52 50 50 49 36 36 37 34
65 68 74 83 92 100 115 116 111 105 93 94 86 83 80 76 70 75 69 72 68 63 53 49 54 53 45 46 41 47 40 42 43 44 47 48 49 53 48 44 42 37 29 28 31
53 54 58 64 69 83 94 113 113 101 103 107 92 84 80 83 81 79 78 71 70 58 49 55 53 49 50 50 50 51 44 43 48 48 53 51 42 49 39 38 35 29 26 23 27
47 48 48 52 56 64 75 84 94 102 108 119 100 89 92 98 94 89 85 73 72 69 62 61 61 55 56 53 57 52 53 51 52 52 51 46 39 42 34 35 25 27 19 19 25
41 40 42 44 47 53 58 67 76 98 114 114 109 103 106 105 100 99 83 73 67 69 66 62 61 64 60 64 63 60 51 52 53 49 45 46 47 40 32 26 24 18 16 19 24
38 35 34 35 38 44 51 57 66 81 103 119 120 116 114 105 104 100 81 68 69 65 72 72 70 69 73 70 62 56 58 54 46 41 43 47 41 32 25 19 18 12 16 17 21
34 33 30 31 32 35 42 50 54 67 84 105 117 121 118 107 105 98 85 85 78 75 70 76 75 77 75 61 57 59 56 52 49 42 37 35 28 26 23 19 13 13 14 17 18
32 30 29 29 28 32 36 42 49 60 77 91 102 118 118 111 105 100 92 92 84 80 71 68 76 82 69 65 67 66 61 54 50 40 43 38 28 29 21 19 9 8 12 17 20
34 29 26 27 27 30 34 36 46 56 68 84 98 104 112 113 110 102 97 94 85 80 76 77 68 75 76 76 74 67 51 44 41 41 29 24 33 24 23 16 9 6 9 16 19
32 28 24 25 28 29 33 35 43 51 61 75 90 95 104 115 113 106 102 95 90 83 79 76 69 62 58 55 55 49 44 33 28 29 31 35 28 24 23 16 9 6 7 17 16
32 27 22 19 28 29 33 36 40 45 56 69 78 85 97 105 109 108 103 98 94 88 83 78 71 61 57 53 49 44 37 31 32 33 32 36 27 24 23 15 10 4 8 13 18
31 25 21 18 20 27 33 38 38 41 50 62 72 78 88 94 101 105 105 102 99 92 86 80 68 65 61 56 48 39 36 30 34 34 37 35 28 26 22 13 9 5 6 13 17
33 24 19 16 17 22 31 35 35 37 44 55 63 69 78 87 97 100 108 105 102 95 88 79 73 69 60 57 54 43 36 31 31 31 35 31 33 31 21 13 8 6 7 11 15
Wind_Direction
238 239 240 243 242 244 238 239 238 236 236 242 242 245 248 248 248 245 246 247 250 255 260 259 262 261 265 268 273 277 277 276 279 286 284 285 291 290 294 297 296 295 300 303 303
242 242 241 242 242 242 242 242 239 236 237 241 242 239 240 240 242 242 242 247 250 254 257 257 257 260 261 267 271 275 279 272 280 282 285 289 290 290 294 294 296 295 298 301 299
244 243 245 246 243 243 244 245 242 240 240 243 241 239 238 237 239 242 243 247 251 252 251 253 258 261 264 269 270 275 274 276 278 282 285 287 288 293 294 294 294 297 301 300 298
246 247 246 247 248 248 246 245 245 242 244 248 247 238 236 238 241 243 245 246 248 251 252 254 255 259 261 266 268 274 276 274 276 278 281 285 289 289 289 293 297 298 297 299 299
244 244 245 247 248 248 248 248 247 248 248 249 248 250 246 236 250 243 247 247 249 251 252 253 256 256 259 264 266 270 272 275 275 279 284 286 287 285 289 296 297 299 297 294 293
249 248 248 247 248 248 250 249 246 247 249 251 249 249 251 250 247 248 249 252 254 254 253 253 252 255 261 260 266 269 274 273 276 280 282 285 288 288 289 293 296 298 295 294 296
267 264 261 252 251 249 247 249 249 248 251 250 250 251 252 246 244 249 253 253 254 255 253 254 255 260 263 267 268 269 270 272 274 279 280 282 283 287 290 291 296 297 293 294 293
259 259 260 260 260 256 252 250 247 247 247 250 251 251 254 248 251 253 251 250 252 254 255 260 256 259 262 262 264 265 267 269 273 279 280 285 282 287 290 294 296 294 292 294 305
268 261 255 254 254 256 259 253 250 249 247 247 248 249 250 251 250 247 249 252 252 253 255 256 258 258 260 259 261 262 263 270 275 276 278 282 284 291 294 295 291 292 294 303 310
272 269 265 256 249 250 249 251 255 250 248 249 251 250 248 251 251 252 252 250 251 250 253 256 256 257 258 259 258 261 267 271 272 276 280 282 284 288 289 288 288 292 299 306 312
277 264 263 261 259 251 247 247 246 245 250 251 248 249 250 249 254 253 250 251 252 251 253 253 254 256 253 253 257 264 267 269 270 274 278 277 280 282 282 287 295 303 306 307 312
273 269 262 258 258 255 253 249 246 245 241 244 250 252 250 245 247 252 254 252 248 249 249 252 256 250 252 255 260 265 268 266 271 273 274 272 274 272 281 293 297 303 309 308 305
273 266 257 254 252 253 252 251 249 247 243 241 242 241 248 246 239 247 251 254 254 249 247 249 248 251 253 257 262 263 263 267 269 274 276 268 271 281 288 292 295 307 309 308 306
275 266 257 253 249 247 249 249 250 249 246 240 240 237 240 244 238 243 242 245 244 253 248 244 248 253 256 258 258 263 260 263 263 266 262 263 276 278 284 291 301 309 306 301 299
274 268 261 255 250 246 245 245 248 245 246 240 236 231 235 240 237 239 238 237 238 229 244 245 244 245 250 247 253 246 253 256 256 255 259 265 273 279 290 299 312 309 294 295 317
276 268 261 256 252 247 242 244 242 243 241 239 236 234 233 235 232 236 239 237 234 233 232 236 246 257 253 246 243 244 245 245 252 256 265 267 276 280 295 304 308 296 296 312 308
283 274 264 258 253 248 243 242 241 237 235 237 235 234 234 233 232 231 234 230 231 228 229 229 234 231 234 239 243 248 249 252 255 259 261 267 280 284 297 301 303 283 288 312 330
289 277 269 262 253 247 244 241 240 230 227 228 232 229 230 227 228 229 228 225 227 226 221 221 228 234 234 235 239 240 244 248 252 255 261 271 283 290 291 293 275 276 296 319 333
293 281 272 263 256 248 242 238 231 227 223 229 231 229 228 226 226 228 226 226 225 226 223 222 225 227 230 234 236 237 240 244 248 258 270 273 277 286 278 276 264 276 332 339 344
300 288 277 268 258 249 242 235 227 222 223 224 225 227 226 227 227 229 228 227 230 228 226 223 225 225 227 228 230 235 241 245 257 266 268 272 281 275 252 251 259 286 338 343 352
305 293 282 272 263 255 243 236 226 221 222 223 222 223 225 223 225 227 226 225 223 223 225 226 227 231 230 231 240 242 247 251 256 261 266 268 263 235 232 238 254 300 334 356 352
310 297 286 272 261 255 247 235 225 218 217 223 223 222 223 223 222 223 221 227 225 224 228 228 225 231 231 233 237 238 244 255 260 266 266 266 231 218 223 235 254 304 332 2 3
314 302 286 271 260 249 246 237 226 218 217 219 219 223 222 223 222 220 221 224 223 224 224 226 228 231 227 232 238 245 254 257 263 261 245 216 220 210 221 231 245 293 343 15 11
318 307 288 268 256 246 241 234 227 220 217 217 220 219 220 222 221 221 217 219 222 222 223 228 226 232 234 240 241 240 241 243 239 230 207 207 210 207 219 220 237 275 352 22 5
323 312 294 264 256 244 240 234 229 221 218 218 219 219 219 220 220 220 219 217 219 221 222 222 224 224 231 235 234 232 228 211 219 211 200 214 203 208 218 216 236 258 8 9 13
330 318 303 280 254 244 240 237 230 221 219 220 219 218 219 219 220 217 219 217 216 220 221 223 219 221 227 228 232 230 226 215 221 221 204 213 199 209 216 213 235 265 355 1 9
335 330 317 293 268 241 236 234 231 223 221 218 218 218 219 217 218 215 215 219 218 216 220 222 220 220 220 227 226 220 228 223 215 219 210 214 206 208 204 204 226 273 313 347 7
Height
10785 10788 10792 10795 10799 10803 10809 10814 10817 10820 10822 10824 10827 10832 10837 10841 10848 10855 10853 10848 10854 10860 10860 10858 10858 10860 10867 10867 10871 10875 10879 10869 10864 10868 10867 10863 10865 10858 10858 10858 10857 10854 10847 10834 10826
10775 10776 10777 10780 10784 10788 10792 10796 10801 10805 10807 10811 10814 10819 10825 10830 10837 10845 10832 10839 10843 10848 10847 10844 10844 10854 10858 10856 10859 10863 10869 10858 10855 10855 10858 10856 10853 10848 10846 10843 10844 10842 10837 10827 10819
10763 10765 10767 10768 10770 10772 10775 10779 10785 10787 10790 10794 10800 10804 10812 10819 10827 10827 10826 10824 10828 10832 10834 10835 10834 10841 10845 10845 10843 10853 10860 10851 10845 10844 10845 10845 10841 10839 10835 10831 10830 10829 10821 10812 10805
10749 10751 10753 10754 10756 10757 10759 10762 10765 10769 10772 10777 10783 10788 10797 10809 10820 10812 10807 10808 10810 10818 10823 10823 10825 10830 10833 10835 10831 10846 10845 10842 10840 10834 10835 10834 10833 10828 10825 10823 10819 10816 10810 10800 10794
10737 10738 10738 10738 10739 10741 10743 10745 10746 10749 10755 10761 10764 10770 10781 10800 10814 10788 10786 10789 10795 10803 10807 10811 10817 10813 10824 10824 10824 10832 10832 10833 10831 10827 10825 10826 10822 10818 10810 10812 10809 10806 10797 10791 10785
10724 10723 10724 10723 10723 10723 10725 10728 10729 10731 10735 10741 10747 10754 10767 10795 10772 10765 10772 10779 10781 10786 10790 10796 10799 10798 10819 10815 10816 10815 10822 10821 10819 10818 10814 10817 10813 10810 10802 10799 10797 10794 10785 10780 10773
10709 10708 10705 10705 10706 10705 10707 10708 10708 10709 10715 10722 10728 10738 10756 10768 10743 10752 10763 10769 10760 10771 10778 10780 10784 10792 10803 10805 10804 10808 10811 10809 10806 10806 10803 10813 10799 10800 10794 10790 10786 10782 10778 10771 10762
10696 10692 10689 10687 10687 10687 10687 10687 10687 10688 10696 10704 10711 10722 10743 10726 10736 10745 10735 10741 10754 10758 10761 10759 10767 10786 10791 10791 10794 10796 10800 10798 10792 10799 10793 10802 10788 10788 10785 10782 10779 10773 10768 10763 10753
10680 10677 10675 10672 10669 10669 10669 10667 10667 10672 10678 10684 10693 10707 10718 10710 10715 10706 10721 10737 10738 10743 10744 10745 10762 10769 10774 10781 10782 10777 10786 10789 10783 10787 10785 10791 10783 10775 10775 10773 10771 10766 10761 10755 10744
10661 10655 10652 10652 10651 10651 10648 10647 10649 10652 10655 10670 10679 10688 10696 10684 10687 10698 10707 10714 10719 10721 10730 10739 10747 10756 10763 10766 10764 10763 10779 10779 10770 10774 10776 10777 10775 10768 10768 10766 10763 10759 10753 10746 10737
10636 10631 10625 10621 10622 10625 10625 10625 10625 10629 10644 10655 10661 10670 10672 10673 10674 10675 10683 10691 10700 10711 10721 10721 10735 10751 10742 10743 10747 10760 10766 10763 10758 10763 10768 10764 10764 10764 10763 10758 10754 10749 10742 10735 10730
10599 10594 10591 10590 10590 10593 10594 10598 10604 10612 10627 10638 10645 10655 10650 10654 10661 10657 10663 10675 10682 10697 10696 10710 10733 10720 10726 10731 10740 10749 10752 10749 10748 10751 10758 10754 10755 10757 10757 10751 10747 10740 10733 10725 10723
10552 10547 10546 10549 10552 10560 10561 10565 10576 10592 10608 10622 10627 10639 10629 10629 10647 10644 10652 10658 10667 10674 10690 10700 10701 10703 10712 10724 10732 10734 10737 10734 10738 10740 10744 10745 10746 10748 10747 10741 10740 10732 10724 10715 10707
10502 10498 10499 10502 10509 10517 10523 10536 10548 10569 10580 10610 10606 10618 10611 10604 10632 10626 10636 10636 10653 10663 10667 10686 10686 10693 10702 10712 10715 10723 10719 10723 10729 10732 10733 10737 10737 10741 10741 10735 10733 10724 10714 10707 10702
10448 10443 10446 10449 10463 10475 10486 10496 10516 10541 10557 10574 10570 10581 10584 10595 10617 10612 10610 10618 10638 10649 10652 10675 10670 10675 10688 10694 10702 10708 10708 10716 10721 10724 10725 10727 10729 10732 10730 10726 10722 10718 10712 10704 10698
10411 10408 10407 10409 10417 10436 10440 10457 10479 10505 10537 10532 10544 10556 10571 10580 10593 10587 10600 10609 10621 10634 10654 10658 10661 10672 10681 10683 10695 10688 10703 10707 10712 10714 10717 10719 10722 10723 10721 10720 10717 10713 10708 10701 10695
10384 10380 10379 10380 10390 10396 10405 10422 10443 10487 10501 10491 10520 10541 10553 10559 10565 10568 10573 10592 10610 10627 10643 10644 10653 10658 10665 10673 10679 10684 10692 10700 10701 10706 10707 10713 10712 10715 10713 10714 10710 10709 10705 10697 10688
10361 10357 10358 10359 10363 10367 10377 10391 10416 10454 10464 10445 10493 10520 10524 10510 10528 10538 10547 10576 10593 10608 10617 10628 10637 10649 10656 10664 10667 10675 10679 10688 10693 10693 10698 10705 10703 10704 10703 10706 10704 10705 10701 10690 10684
10343 10340 10337 10340 10343 10347 10354 10366 10384 10401 10404 10432 10460 10479 10476 10490 10502 10509 10547 10572 10584 10597 10612 10618 10628 10634 10643 10643 10652 10664 10675 10672 10681 10688 10692 10695 10694 10698 10696 10701 10698 10699 10693 10686 10679
10326 10322 10322 10322 10324 10328 10332 10339 10352 10366 10380 10393 10414 10437 10445 10473 10491 10504 10549 10573 10575 10586 10591 10600 10607 10613 10617 10624 10644 10660 10656 10668 10678 10681 10680 10684 10689 10690 10690 10695 10694 10693 10688 10683 10676
10313 10308 10307 10307 10309 10312 10316 10322 10337 10349 10359 10363 10387 10411 10422 10457 10475 10500 10533 10533 10549 10559 10573 10584 10596 10596 10604 10637 10644 10646 10651 10659 10665 10670 10673 10677 10680 10683 10687 10689 10689 10688 10685 10680 10674
10301 10296 10294 10293 10296 10298 10300 10308 10318 10329 10339 10353 10371 10384 10409 10437 10460 10486 10511 10511 10534 10543 10567 10577 10582 10581 10614 10620 10618 10626 10639 10650 10658 10664 10667 10672 10673 10677 10682 10683 10684 10683 10681 10677 10671
10288 10285 10283 10281 10284 10285 10288 10295 10303 10312 10324 10333 10347 10368 10398 10421 10441 10469 10487 10500 10520 10536 10549 10554 10576 10577 10595 10603 10612 10631 10640 10646 10650 10655 10662 10665 10665 10673 10675 10678 10679 10680 10678 10674 10668
10277 10273 10272 10271 10271 10273 10275 10282 10287 10300 10311 10316 10327 10350 10372 10390 10418 10446 10469 10488 10500 10518 10530 10543 10564 10579 10596 10609 10611 10621 10630 10637 10642 10647 10651 10655 10663 10668 10671 10674 10675 10677 10674 10669 10669
10267 10262 10260 10261 10260 10263 10264 10270 10276 10289 10296 10300 10315 10337 10351 10371 10400 10432 10450 10476 10486 10499 10512 10530 10552 10573 10585 10594 10603 10613 10621 10628 10633 10637 10648 10649 10659 10663 10667 10669 10671 10672 10669 10667 10664
10259 10253 10250 10250 10252 10253 10255 10258 10266 10276 10283 10290 10302 10317 10335 10360 10381 10417 10437 10455 10469 10485 10502 10521 10547 10560 10570 10583 10595 10609 10614 10623 10625 10630 10638 10644 10654 10658 10662 10663 10665 10665 10665 10665 10662
10251 10246 10243 10242 10242 10243 10244 10248 10256 10266 10273 10279 10294 10313 10324 10342 10362 10389 10416 10436 10455 10474 10492 10515 10531 10546 10564 10573 10584 10597 10610 10619 10624 10626 10633 10640 10645 10651 10657 10657 10660 10660 10661 10662 10660